Weather observations for the past three days for
Sparrevohn Airways Facilities Sector
Imperial (Metric)
Date Time (akdt) Wind (mph) Vis. (mi.) Weather Sky Cond. Temperature (ºF) Relative Humidity Wind Chill (°F) Heat Index (°F) Pressure Precipitation (in)
Air Dwpt 6 hour altimeter (in) sea level (mb) 1 hr 3 hr 6 hr
Max. Min.
22 20:55 Vrbl 3 10.00 Mostly Cloudy FEW047 BKN160 60.6 51.1 71% 29.85 1010.1
22 19:55 Vrbl 5 10.00 Mostly Cloudy BKN055 61 50.7 69% 29.86 1010.3
22 18:55 N 13 10.00 Mostly Cloudy BKN065 61.2 50.4 68% 29.85 1010.3
22 17:55 N 14 G 26 10.00 Thunderstorm in Vicinity BKN200 62.6 48.9 61% 29.85 1010.2
22 16:55 NW 16 10.00 Thunderstorm in Vicinity BKN190 63.7 49.6 60% 29.87 1010.5
22 15:55 NW 20 G 26 10.00 Thunderstorm FEW025 FEW050 BKN190 62.8 50.5 64.8 56.7 64% 29.87 1010.5
22 14:55 NW 14 G 23 10.00 Thunderstorm in Vicinity FEW025 SCT190 BKN230 63.5 51.1 64% 29.87 1010.7
22 13:55 N 9 G 21 10.00 Mostly Cloudy BKN200 64 50.5 62% 29.87 1010.6
22 12:55 NW 14 G 20 10.00 Partly Cloudy FEW210 SCT250 63 49.1 61% 29.87 1010.5
22 11:55 NW 8 G 18 10.00 A Few Clouds FEW240 61.3 50.5 68% 29.88 1010.6
22 10:55 NW 9 10.00 Partly Cloudy SCT210 59.2 50.2 72% 29.88 1010.7
22 09:55 NW 12 10.00 Fair CLR 56.8 49.5 56.8 50.7 76% 29.88 1010.6
22 08:55 Vrbl 6 10.00 A Few Clouds FEW250 55 48.9 80% 29.88 1010.8
22 07:55 NW 8 10.00 A Few Clouds FEW250 54 48.7 83% 29.88 1010.9
22 06:55 S 2 10.00 Fair CLR 52 47.3 84% 29.88 1010.9
22 05:55 NE 2 10.00 Fair CLR 52.2 46.8 82% 29.87 1010.7
22 04:55 Vrbl 1 10.00 Fair CLR 52.3 46.6 81% 29.88 1011.0
22 03:55 E 1 10.00 Fair CLR 52.5 48.4 65.3 52.7 86% 29.89 1011.1
22 02:55 Vrbl 1 10.00 Fair CLR 54.1 47.8 79% 29.88 1011.1
22 01:55 NW 13 10.00 Fair CLR 54.3 47.3 77% 29.88 1010.9
22 00:55 SE 1 10.00 Fair CLR 57.2 45.3 65% 29.88 1011.0
21 23:55 N 8 10.00 Mostly Cloudy BKN085 60.3 45.7 59% 29.87 1010.7
21 22:55 N 9 10.00 A Few Clouds FEW100 63 45.1 52% 29.86 1010.2
21 21:55 N 6 10.00 Partly Cloudy SCT085 65.1 44.2 67.6 64.6 47% 29.85 1009.9
21 20:55 Vrbl 6 10.00 Thunderstorm in Vicinity CLR 65.7 43 44% 29.86 1010.0
21 19:55 Vrbl 6 10.00 Fair CLR 66.6 42.4 42% 29.86 1010.2
21 18:55 NW 3 10.00 Thunderstorm in Vicinity CLR 67.1 41.9 40% 29.86 1010.4
21 17:55 Vrbl 7 10.00 Thunderstorm in Vicinity CLR 66.9 43.7 43% 29.86 1010.5
21 16:55 N 8 10.00 Fair CLR 65.8 42.8 43% 29.88 1011.1
21 15:55 NW 9 10.00 Fair CLR 64.9 43.9 66 54.9 47% 29.89 1011.5
21 14:55 N 10 G 14 10.00 A Few Clouds FEW040 63.1 45.5 53% 29.9 1011.8
21 13:55 Vrbl 3 10.00 Partly Cloudy FEW034 SCT230 61.3 46 57% 29.9 1012.0
21 12:55 Vrbl 7 10.00 A Few Clouds FEW032 59.2 47.1 64% 29.91 1012.3
21 11:55 NW 8 10.00 Fair CLR 58.8 45.9 62% 29.91 1012.4
21 10:55 SE 3 10.00 Fair CLR 57 43.9 62% 29.91 1012.5
21 09:55 SW 3 10.00 Fair CLR 55 45 55.2 45.9 69% 29.92 1012.7
21 08:55 NW 3 10.00 Fair CLR 53.1 44.1 72% 29.93 1013.0
21 07:55 Vrbl 6 10.00 Fair CLR 51.6 43.2 73% 29.93 1013.0
21 06:55 Calm 10.00 Mostly Cloudy BKN110 47.7 44.4 89% 29.92 1013.1
21 05:55 Calm 10.00 Overcast FEW040 OVC110 47.3 42.4 83% 29.93 1013.1
21 04:55 Calm 10.00 Mostly Cloudy FEW047 BKN110 46.4 43.2 89% 29.93 1013.1
21 03:55 Calm 10.00 Light Rain OVC050 46.9 43 53.6 46.2 86% 29.93 1013.3 0.01 0.01
21 02:55 W 1 10.00 Light Rain OVC050 48.9 42.1 77% 29.94 1013.4
21 01:55 Calm 10.00 Overcast BKN043 OVC055 49.5 41.9 75% 29.94 1013.2
21 00:55 SW 2 10.00 Overcast FEW046 BKN085 OVC110 50.4 41.5 72% 29.93 1013.1
20 23:55 W 1 10.00 Overcast SCT049 BKN055 OVC110 51.6 41.2 68% 29.93 1013.2
20 22:55 W 3 10.00 Overcast OVC055 52.3 41.7 67% 29.93 1013.2
20 21:55 W 6 10.00 Mostly Cloudy FEW065 BKN075 BKN110 53.6 42.6 62.1 53.6 67% 29.92 1012.8
20 20:55 W 8 10.00 Overcast OVC110 55.4 43.2 64% 29.92 1012.8
20 19:55 Vrbl 6 10.00 Mostly Cloudy FEW024 BKN110 57.4 42.3 57% 29.9 1012.4
20 18:55 SW 12 10.00 Thunderstorm in Vicinity BKN065 59 40.6 51% 29.9 1012.2
20 17:55 SW 10 10.00 Thunderstorm in Vicinity FEW065 FEW090 59.4 43 55% 29.89 1012.0
20 16:55 Vrbl 5 10.00 Thunderstorm in Vicinity OVC120 61.5 37 40% 29.9 1012.0
20 15:55 E 10 G 16 10.00 Mostly Cloudy BKN065 61 36.3 62.6 54 40% 29.91 1012.7
20 14:55 SE 15 10.00 Mostly Cloudy BKN095 61.7 33.8 35% 29.92 1012.8
20 13:55 S 3 10.00 Mostly Cloudy BKN048 61.7 42.1 49% 29.92 1012.8
20 12:55 E 5 10.00 Partly Cloudy SCT090 60.6 41.9 50% 29.92 1012.9
20 10:55 Vrbl 3 10.00 Mostly Cloudy BKN130 56.7 40.6 55% 29.94 1013.6
20 09:55 Vrbl 7 10.00 Mostly Cloudy BKN150 54.7 40.3 54.9 44.1 58% 29.96 1014.1
20 08:55 Vrbl 3 10.00 A Few Clouds FEW140 51.4 38.5 61% 29.97 1014.4
20 07:55 S 5 10.00 Mostly Cloudy SCT140 BKN160 BKN190 48.7 41.2 75% 47 29.98 1015.1
20 06:55 Calm 10.00 Mostly Cloudy BKN130 46.4 39 76% 29.99 1015.5
20 05:55 SE 2 10.00 Mostly Cloudy BKN140 45.1 38.3 77% 30 1015.7
20 04:55 NW 2 10.00 Mostly Cloudy BKN150 47.8 36.7 65% 30 1015.8
20 03:55 Calm 10.00 Mostly Cloudy SCT140 BKN190 45.3 38.7 53.2 44.6 78% 30.01 1016.2
20 02:55 Calm 10.00 Mostly Cloudy FEW150 FEW190 SCT210 BKN240 45.9 39.4 78% 30.02 1016.5
20 01:55 Calm 10.00 Mostly Cloudy BKN150 46 39.2 77% 30.02 1016.6
20 00:55 Vrbl 2 10.00 Mostly Cloudy BKN200 48.2 39.4 72% 30.03 1016.8
19 23:55 NW 7 10.00 Partly Cloudy FEW140 SCT170 50 39.9 68% 48 30.02 1016.4
19 22:55 W 2 10.00 Overcast OVC140 51.4 40.3 66% 30.02 1016.3
19 21:55 W 2 10.00 Mostly Cloudy BKN120 53.1 41 58.1 53.2 64% 30.01 1016.2
Date Time (akdt) Wind (mph) Vis. (mi.) Weather Sky Cond. Air Dwpt Max. Min. Relative Humidity Wind Chill (°F) Heat Index (°F) altimeter (in) sea level (mb) 1 hr 3 hr 6 hr
6 hour
Temperature (ºF) Pressure Precipitation (in)